Location: Potomac
(46.8816°N, 113.5795°W)
Time: 12:11:11
(UTC+00:00)

Gurwin Techsat 1B - Pass Details

Date: 05 July 2022
Orbit: 812 x 813 km, 98.8° (Epoch: 10 August)

Event Time Altitude Azimuth Distance (km) Brightness Sun altitude
Rises 08:53:53 0° 29° (NNE) 3,345 13.4 -18.3°
Reaches altitude 10° 08:57:02 10° 48° (NE) 2,408 12.0 -18.1°
Maximum altitude 09:00:35 18° 90° (E) 1,908 10.8 -17.9°
Drops below altitude 10° 09:04:06 10° 132° (SE) 2,396 10.8 -17.7°
Enters shadow 09:05:15 - 141° (SE) 2,707 11.0 -17.7°
